Regional Weather Roundup
Issued by NWS

Home | Current Version | Previous Version | Text Only | Print | Product List | Glossary On
Versions: 1 2 3 4 5 6 7 8 9 10 11 12 13 14 15 16 17 18 19 20 21 22 23 24 25 26 27
000
ASCA42 TJSJ 261010
RWRPR
PUERTO RICO/U.S. VIRGIN ISLANDS HOURLY WEATHER ROUNDUP
NATIONAL WEATHER SERVICE SAN JUAN PR
600 AM AST SUN FEB 26 2017

PRZ001>002-007>008-010-261100-
PUERTO RICO

CITY           SKY/WX    TMP DP  RH WIND       PRES   REMARKS
SAN JUAN LMM   PTCLDY    75  72  88 CALM      30.01R
PONCE          CLEAR     70  64  83 NE6       30.02R
AGUADILLA      CLEAR     68  63  83 CALM      30.02R
CEIBA          MOCLDY    79  72  78 E5        30.02R
$$

VIZ001>002-261100-
U.S. VIRGIN ISLANDS

CITY           SKY/WX    TMP DP  RH WIND       PRES   REMARKS
CHARLOTTE AMA  CLEAR     73  70  88 E6        29.99R
CHRISTIANSTED  PTCLDY    73  70  88 N5        30.00R
$$

HOURLY WEATHER ROUNDUP FOR THE NEWS MEDIA

CITY           SKY/WX    TMP DP  RH WIND       PRES   REMARKS
ORLANDO        CLEAR     62  52  69 N8        30.06R
NEW YORK       MOCLDY    40  23  50 NW25G32   29.82R WCI  29
NEWARK         MOCLDY    39  23  52 NW15      29.82R WCI  31
CHICAGO        CLOUDY    25  19  78 S5        30.01F WCI  19
HARTFORD       CLEAR     41  26  55 W23G30    29.65R
BOSTON         PTCLDY    40  24  53 W20G36    29.63R WCI  30
DALLAS         PTCLDY    44  27  51 SE13      29.98F
PHILADELPHIA   MOCLDY    39  21  48 W12G21    29.91R WCI  32
LOS ANGELES    CLOUDY    52  44  74 W14       30.01R
WASHINGTON DC  PTCLDY    33  16  49 NW14G22   29.99R WCI  23



USA.gov is the U.S. government's official web portal to all federal, state and local government web resources and services.